Regional Weather Roundup
Issued by NWS

Home | Current Version | Previous Version | Graphics & Text | Print | Product List | Glossary On
Versions: 1 2 3 4 5 6 7 8 9 10 11 12 13 14 15 16 17 18 19 20 21 22 23 24 25 26 27 28 29 30 31 32 33 34 35 36 37 38 39 40 41 42 43 44 45 46 47 48 49 50
581
ASUS43 KTOP 261459
RWRKS

WEATHER ROUNDUP FOR KANSAS
NATIONAL WEATHER SERVICE GOODLAND KS
1000 AM CDT SUN MAR 26 2017

NOTE:  "FAIR" INDICATES FEW OR NO CLOUDS BELOW 12,000 FEET WITH NO
SIGNIFICANT WEATHER AND/OR OBSTRUCTIONS TO VISIBILITY.

KSZ001>006-013>018-027>032-041>047-261600-
NORTHWEST KANSAS

CITY           SKY/WX    TMP DP  RH WIND       PRES   REMARKS
GOODLAND       FOG       38  38 100 NE13      29.82R VSB 1/4 WCI  30
HAYS             N/A     43  41  93 E10       29.89R
HILL CITY      CLOUDY    42  41  96 E7        29.88S
RUSSELL        CLOUDY    44  41  89 E8        29.87S
$$

KSZ061>065-074>080-084>089-261600-
SOUTHWEST KANSAS

CITY           SKY/WX    TMP DP  RH WIND       PRES   REMARKS
DODGE CITY     FOG       40  40 100 E13       29.81S VSB 1/4 WCI  32
ELKHART          N/A     43  34  71 E7          N/A
GARDEN CITY    FOG       40  39  97 E18       29.79R VSB 1/2 WCI  31
GREAT BEND     CLOUDY    43  41  93 SE10      29.89R
LIBERAL        CLOUDY    45  39  81 E15       29.73F
$$

KSZ066>073-081>083-090>101-261600-
SOUTHEAST KANSAS

CITY           SKY/WX    TMP DP  RH WIND       PRES   REMARKS
CHANUTE        CLOUDY    47  45  93 SW3       29.94S
COFFEYVILLE    CLOUDY    49  44  83 S6        29.96R
HUTCHINSON     CLOUDY    44  41  89 SE6       29.92R
MEDICINE LODGE   N/A     44  41  89 E6        29.88F
NEWTON         CLOUDY    42  42 100 NE5       29.93R FOG
PARSONS        CLOUDY    49  44  83 S5        29.96R
WICHITA INTL   CLOUDY    44  44 100 SE6       29.93R FOG
WICHITA JABRA  CLOUDY    44  44 100 E3        29.92R FOG
WINFIELD       CLOUDY    47  43  86 S7        29.96R
$$

KSZ007>012-019>026-033>040-048>060-102>105-261600-
NORTHEAST KANSAS

CITY           SKY/WX    TMP DP  RH WIND       PRES   REMARKS
CONCORDIA      CLOUDY    42  41  96 CALM      29.93R FOG
EMPORIA        CLOUDY    45  44  97 CALM      29.92S
LAWRENCE       CLOUDY    46  43  89 W5        29.93F
MANHATTAN      CLOUDY    45  43  93 CALM      29.93S FOG
OLATHE IND     CLOUDY    45  41  86 W7        29.93S
OLATHE EXE     CLOUDY    45  42  89 W8        29.93R
SALINA         CLOUDY    45  43  93 NE3       29.93F FOG
TOPEKA BILLARD CLOUDY    46  43  89 W5        29.93S
TOPEKA FORBES  CLOUDY    47  43  86 W6        29.93S
$$




USA.gov is the U.S. government's official web portal to all federal, state and local government web resources and services.